STARLINK-1847 (46739 NORAD) Tracking and Keplerian Element Data

This shows tracking and keplerian element data for the satellite.

Feedback or suggestion? Click here.




ElementValue
Catalog46739
NameSTARLINK-1847
Epoch Orbit1380
Epoch Day17.91667824
Epoch Year2021
RAAN106.811
Inclination53.0536
Eccentricity0.0001448
Argument of Perigee78.9172
Mean Anonmoly121.6644
Mean Motion15.10965222
Decay Rate-0.01056062
L11 46739U 20074A 21017.91667824 -.01056062 00000-0 -67511-1 0 9999
L22 46739 53.0536 106.8110 0001448 78.9172 121.6644 15.10965222 13800

Live tracking and technical data element details for STARLINK-1847 (NORAD 46739). STARLINK-1847 can be tracked NOW for your location showing map with azimuth and elevation plus other details from your city location.

Track the satellite on the map from your city or location and see movement details for azimuth, elevation, latitude, longitude, range, height, and movement on the map or in text.







IsCatalogInMostPopularTable: catalog: 46739, numindb: 27
Update: records affected: 1



GetName: 46739 STARLINK-1847

Hit Count: updated at: Mon, 18 Jan 2021 17:25:44 GMT